Location: Castillon
(43.0896°N, 0.2156°E)
Time: 20:11:31
(UTC+00:00)

Cosmos 1975 Rocket - Pass Details

Date: 16 June 2021
Orbit: 603 x 633 km, 82.5° (Epoch: 02 August)

Event Time Altitude Azimuth Distance (km) Brightness Sun altitude
Exits shadow 21:18:20 13° 186° (S) 1,795 5.0 -13.8°
Maximum altitude 21:22:16 89° 99° (E) 619 3.0 -14.3°
Drops below altitude 10° 21:26:40 10° 8° (N) 1,990 6.3 -14.8°
Sets 21:28:55 0° 9° (N) 2,905 7.2 -15.0°
